KLM542 KEWR-EHAM

Flight info

Callsign KLM542
Flight time 6h 28m
Altitude 37000
Route MERIT DCT HFD DCT PUT DCT WITCH DCT ALLEX N431B ELSIR/M085F390 DCT 50N050W 52N040W 54N030W 55N020W DCT RESNO DCT NETKI/N0479F390 DCT NIBOG DCT ELBOB DCT REMSI DCT BELOX L603 LAMSO
Aircraft A35K/H-SDE2E3GHIJ3J4J5LM1ORWXY/LB1D1

Departure

Time 2026-05-04 06:48
Airport Newark Liberty International Airport (KEWR)

Arrival

Time 2026-05-04 13:17
Airport Amsterdam Airport Schiphol (EHAM)
Time Latitude Longitude Altitude Speed Heading
2026-05-04 06:25 40.68551 -74.17903 26 ft 0 kts 334°
2026-05-04 06:40 40.68503 -74.17922 30 ft 0 kts 75°
2026-05-04 06:41 40.68505 -74.17914 31 ft 6 kts 75°
2026-05-04 06:42 40.68520 -74.17858 32 ft 2 kts 65°
2026-05-04 06:42 40.68495 -74.17798 26 ft 10 kts 125°
2026-05-04 06:42 40.68464 -74.17712 30 ft 9 kts 88°
2026-05-04 06:44 40.69284 -74.16998 28 ft 25 kts 26°
2026-05-04 06:44 40.69399 -74.16923 28 ft 18 kts 26°
2026-05-04 06:44 40.69532 -74.16837 27 ft 25 kts 26°
2026-05-04 06:45 40.69702 -74.16728 27 ft 30 kts 25°
2026-05-04 06:45 40.69802 -74.16666 22 ft 12 kts 25°
2026-05-04 06:45 40.69898 -74.16605 26 ft 20 kts 25°
2026-05-04 06:45 40.70037 -74.16507 23 ft 11 kts 48°
2026-05-04 06:46 40.70050 -74.16402 21 ft 0 kts 114°
2026-05-04 06:46 40.70011 -74.16381 22 ft 7 kts 189°
2026-05-04 06:46 40.69858 -74.16474 26 ft 63 kts 205°
2026-05-04 06:46 40.69177 -74.16905 26 ft 151 kts 206°
2026-05-04 06:48 40.57702 -74.23062 6249 ft 287 kts 190°
2026-05-04 06:48 40.55746 -74.22922 7351 ft 286 kts 170°
2026-05-04 06:49 40.53917 -74.21852 8312 ft 293 kts 147°
2026-05-04 06:50 40.59565 -74.07142 11958 ft 376 kts 14°
2026-05-04 06:51 40.62088 -74.06085 12674 ft 383 kts 13°
2026-05-04 06:51 40.64633 -74.04939 13399 ft 391 kts 18°
2026-05-04 06:51 40.67048 -74.03177 14094 ft 404 kts 33°
2026-05-04 06:51 40.69180 -74.00783 14765 ft 412 kts 40°
2026-05-04 06:52 40.71199 -73.98057 15466 ft 418 kts 44°
2026-05-04 06:52 40.73142 -73.95156 16173 ft 423 kts 45°
2026-05-04 06:52 40.75057 -73.92176 16836 ft 428 kts 46°
2026-05-04 06:52 40.76985 -73.89152 17560 ft 432 kts 46°
2026-05-04 06:53 40.78936 -73.86115 18304 ft 436 kts 45°
2026-05-04 06:53 40.80918 -73.83065 18938 ft 440 kts 45°
2026-05-04 06:53 40.82941 -73.79982 19582 ft 445 kts 45°
2026-05-04 06:53 40.84988 -73.76878 20246 ft 449 kts 45°
2026-05-04 06:54 40.87053 -73.73754 20901 ft 453 kts 45°
2026-05-04 06:54 40.89108 -73.70648 21543 ft 458 kts 45°
2026-05-04 06:54 40.91214 -73.67459 22211 ft 462 kts 45°
2026-05-04 06:54 40.93337 -73.64241 22826 ft 466 kts 45°
2026-05-04 06:55 40.95477 -73.60992 23480 ft 471 kts 45°
2026-05-04 06:55 40.97637 -73.57706 24022 ft 475 kts 45°
2026-05-04 06:55 40.99822 -73.54379 24533 ft 480 kts 45°
2026-05-04 06:55 41.02016 -73.51033 25097 ft 483 kts 45°
2026-05-04 06:56 41.04228 -73.47655 25641 ft 486 kts 45°
2026-05-04 06:57 41.20168 -73.23212 29195 ft 513 kts 44°
2026-05-04 06:58 41.22507 -73.19608 29654 ft 517 kts 45°
2026-05-04 06:58 41.24861 -73.15977 30054 ft 521 kts 45°
2026-05-04 06:58 41.27234 -73.12312 30442 ft 523 kts 45°
2026-05-04 06:58 41.29604 -73.08645 30884 ft 523 kts 45°
2026-05-04 06:59 41.31978 -73.04968 31294 ft 525 kts 45°
2026-05-04 06:59 41.33559 -73.02518 31558 ft 526 kts 45°
2026-05-04 06:59 41.35942 -72.98818 32054 ft 525 kts 45°
2026-05-04 06:59 41.39082 -72.93937 32682 ft 524 kts 45°
2026-05-04 07:01 41.55080 -72.68962 34825 ft 532 kts 45°
2026-05-04 07:01 41.57476 -72.65201 35136 ft 531 kts 45°
2026-05-04 07:02 41.59870 -72.61440 35406 ft 532 kts 45°
2026-05-04 07:02 41.62271 -72.57663 35671 ft 532 kts 45°
2026-05-04 07:02 41.64498 -72.53668 35893 ft 537 kts 54°
2026-05-04 07:02 41.66516 -72.49459 36178 ft 538 kts 54°
2026-05-04 07:03 41.68456 -72.45256 36512 ft 537 kts 56°
2026-05-04 07:03 41.70385 -72.40983 36818 ft 536 kts 56°
2026-05-04 07:03 41.72304 -72.36691 36943 ft 540 kts 56°
2026-05-04 07:03 41.74239 -72.32353 36954 ft 544 kts 56°
2026-05-04 07:04 41.78126 -72.23635 36948 ft 544 kts 56°
2026-05-04 07:04 41.82018 -72.14910 36964 ft 545 kts 56°
2026-05-04 07:05 41.85909 -72.06178 36960 ft 544 kts 56°
2026-05-04 07:05 41.89760 -71.97512 36957 ft 544 kts 56°
2026-05-04 07:06 41.95802 -71.84606 36944 ft 540 kts 46°
2026-05-04 07:07 42.00936 -71.77312 36943 ft 536 kts 40°
2026-05-04 07:09 42.22293 -71.49375 36912 ft 536 kts 40°
2026-05-04 07:09 42.27620 -71.42336 36925 ft 536 kts 40°
2026-05-04 07:10 42.32950 -71.35277 36920 ft 535 kts 40°
2026-05-04 07:12 42.54100 -71.07096 36915 ft 532 kts 41°
2026-05-04 07:12 42.59368 -71.00033 36915 ft 532 kts 41°
2026-05-04 07:13 42.64636 -70.92953 36914 ft 531 kts 41°
2026-05-04 07:13 42.69490 -70.85367 36915 ft 535 kts 52°
2026-05-04 07:14 42.79675 -70.64158 36899 ft 536 kts 55°
2026-05-04 07:15 42.83686 -70.55619 36892 ft 535 kts 55°
2026-05-04 07:15 42.87705 -70.47079 36886 ft 535 kts 55°
2026-05-04 07:16 42.91716 -70.38545 36896 ft 535 kts 55°
2026-05-04 07:16 42.95718 -70.30002 36883 ft 533 kts 55°
2026-05-04 07:17 42.99708 -70.21461 36881 ft 533 kts 55°
2026-05-04 07:17 43.03670 -70.12956 36882 ft 534 kts 55°
2026-05-04 07:18 43.07679 -70.04323 36876 ft 534 kts 55°
2026-05-04 07:18 43.11630 -69.95790 36875 ft 535 kts 56°
2026-05-04 07:19 43.15610 -69.87171 36878 ft 535 kts 56°
2026-05-04 07:19 43.19581 -69.78545 36879 ft 536 kts 56°
2026-05-04 07:20 43.23551 -69.69896 36873 ft 535 kts 56°
2026-05-04 07:20 43.27512 -69.61241 36873 ft 535 kts 56°
2026-05-04 07:22 43.43277 -69.26538 36863 ft 540 kts 56°
2026-05-04 07:23 43.47247 -69.17738 36860 ft 541 kts 56°
2026-05-04 07:23 43.51207 -69.08927 36848 ft 541 kts 57°
2026-05-04 07:24 43.55159 -69.00108 36849 ft 541 kts 57°
2026-05-04 07:24 43.59079 -68.91335 36843 ft 541 kts 57°
2026-05-04 07:26 43.74779 -68.55933 36838 ft 540 kts 57°
2026-05-04 07:27 43.78663 -68.47106 36825 ft 539 kts 57°
2026-05-04 07:27 43.82550 -68.38247 36825 ft 539 kts 57°
2026-05-04 07:28 43.86443 -68.29349 36821 ft 539 kts 57°
2026-05-04 07:28 43.90328 -68.20440 36812 ft 538 kts 57°
2026-05-04 07:29 43.94200 -68.11532 36810 ft 538 kts 58°
2026-05-04 07:29 43.98060 -68.02627 36809 ft 539 kts 58°
2026-05-04 07:30 44.01920 -67.93691 36802 ft 538 kts 58°
2026-05-04 07:30 44.05742 -67.84816 36798 ft 538 kts 58°
2026-05-04 07:31 44.09582 -67.75873 36799 ft 538 kts 58°
2026-05-04 07:33 44.24837 -67.40067 36764 ft 538 kts 58°
2026-05-04 07:33 44.28641 -67.31070 36759 ft 537 kts 58°
2026-05-04 07:34 44.32406 -67.22132 36763 ft 537 kts 58°
2026-05-04 07:34 44.36180 -67.13148 36752 ft 537 kts 59°
2026-05-04 07:35 44.39957 -67.04130 36741 ft 537 kts 59°
2026-05-04 07:35 44.43753 -66.95129 36724 ft 536 kts 58°
2026-05-04 07:36 44.47689 -66.86235 36705 ft 536 kts 57°
2026-05-04 07:38 44.63350 -66.50594 36688 ft 536 kts 58°
2026-05-04 07:38 44.67229 -66.41653 36678 ft 536 kts 58°
2026-05-04 07:39 44.71107 -66.32691 36664 ft 536 kts 58°
2026-05-04 07:39 44.74982 -66.23707 36663 ft 536 kts 58°
2026-05-04 07:40 44.78824 -66.14773 36661 ft 536 kts 58°
2026-05-04 07:40 44.82680 -66.05778 36661 ft 536 kts 58°
2026-05-04 07:41 44.86532 -65.96763 36655 ft 537 kts 58°
2026-05-04 07:41 44.90392 -65.87700 36653 ft 538 kts 58°
2026-05-04 07:42 44.94209 -65.78709 36639 ft 537 kts 58°
2026-05-04 07:42 44.98047 -65.69639 36639 ft 536 kts 58°
2026-05-04 07:43 45.01860 -65.60600 36628 ft 535 kts 59°
2026-05-04 07:43 45.05663 -65.51556 36607 ft 535 kts 58°
2026-05-04 07:44 45.09452 -65.42518 36611 ft 537 kts 59°
2026-05-04 07:44 45.13251 -65.33425 36600 ft 536 kts 59°
2026-05-04 07:45 45.17040 -65.24325 36586 ft 535 kts 59°
2026-05-04 07:45 45.20819 -65.15222 36575 ft 535 kts 59°
2026-05-04 07:46 45.23957 -65.07642 36576 ft 535 kts 59°
2026-05-04 07:46 45.27723 -64.98514 36562 ft 536 kts 59°
2026-05-04 07:47 45.31480 -64.89380 36550 ft 536 kts 59°
2026-05-04 07:49 45.46442 -64.52707 36511 ft 536 kts 59°
2026-05-04 07:49 45.50176 -64.43478 36476 ft 536 kts 60°
2026-05-04 07:50 45.53881 -64.34290 36452 ft 536 kts 60°
2026-05-04 07:50 45.57588 -64.25066 36455 ft 536 kts 60°
2026-05-04 07:51 45.61295 -64.15815 36435 ft 536 kts 60°
2026-05-04 07:51 45.65003 -64.06528 36412 ft 539 kts 60°
2026-05-04 07:52 45.68714 -63.97201 36393 ft 540 kts 60°
2026-05-04 07:52 45.72422 -63.87851 36396 ft 540 kts 60°
2026-05-04 07:54 45.87140 -63.50423 36338 ft 540 kts 60°
2026-05-04 07:55 45.90786 -63.41071 36305 ft 541 kts 61°
2026-05-04 07:55 45.94479 -63.31567 36318 ft 547 kts 61°
2026-05-04 07:56 45.98187 -63.21992 36284 ft 547 kts 61°
2026-05-04 07:56 46.01881 -63.12418 36288 ft 546 kts 61°
2026-05-04 07:57 46.05564 -63.02841 36285 ft 547 kts 62°
2026-05-04 07:57 46.09242 -62.93242 36286 ft 548 kts 62°
2026-05-04 07:58 46.12895 -62.83676 36263 ft 548 kts 62°
2026-05-04 07:58 46.16564 -62.74032 36257 ft 547 kts 62°
2026-05-04 07:59 46.20207 -62.64423 36164 ft 544 kts 63°
2026-05-04 07:59 46.23836 -62.54814 36158 ft 543 kts 62°
2026-05-04 08:00 46.27450 -62.45215 36155 ft 544 kts 63°
2026-05-04 08:02 46.41792 -62.06784 36056 ft 540 kts 64°
2026-05-04 08:02 46.45345 -61.97170 36037 ft 539 kts 63°
2026-05-04 08:03 46.48856 -61.87643 36015 ft 537 kts 64°
2026-05-04 08:03 46.52378 -61.78052 36011 ft 537 kts 63°
2026-05-04 08:04 46.55886 -61.68469 35983 ft 537 kts 64°
2026-05-04 08:04 46.59381 -61.58884 35974 ft 535 kts 64°
2026-05-04 08:05 46.62854 -61.49324 35980 ft 533 kts 64°
2026-05-04 08:05 46.66280 -61.39859 35978 ft 529 kts 64°
2026-05-04 08:06 46.69697 -61.30386 35962 ft 527 kts 64°
2026-05-04 08:06 46.73091 -61.20942 35936 ft 526 kts 65°
2026-05-04 08:08 46.86591 -60.83047 35955 ft 526 kts 65°
2026-05-04 08:11 47.01602 -60.40263 35938 ft 525 kts 66°
2026-05-04 08:11 47.06585 -60.25904 35945 ft 526 kts 66°
2026-05-04 08:12 47.09876 -60.16378 35947 ft 526 kts 66°
2026-05-04 08:12 47.13184 -60.06768 35956 ft 526 kts 66°
2026-05-04 08:13 47.16477 -59.97167 35953 ft 526 kts 66°
2026-05-04 08:13 47.19765 -59.87546 35961 ft 526 kts 66°
2026-05-04 08:14 47.23043 -59.77917 35971 ft 526 kts 67°
2026-05-04 08:16 47.36057 -59.39334 36014 ft 527 kts 67°
2026-05-04 08:16 47.39296 -59.29644 36028 ft 526 kts 68°
2026-05-04 08:17 47.42526 -59.19943 36052 ft 526 kts 68°
2026-05-04 08:17 47.45742 -59.10244 36049 ft 526 kts 68°
2026-05-04 08:19 47.58454 -58.71555 36126 ft 523 kts 68°
2026-05-04 08:20 47.61606 -58.61870 36144 ft 522 kts 68°
2026-05-04 08:20 47.64749 -58.52178 36163 ft 520 kts 68°
2026-05-04 08:21 47.67880 -58.42483 36177 ft 520 kts 68°
2026-05-04 08:21 47.70985 -58.32830 36197 ft 520 kts 68°
2026-05-04 08:22 47.74098 -58.23124 36204 ft 519 kts 69°
2026-05-04 08:24 47.86423 -57.84301 36255 ft 522 kts 69°
2026-05-04 08:24 47.89504 -57.74508 36267 ft 522 kts 69°
2026-05-04 08:25 47.92582 -57.64681 36290 ft 522 kts 69°
2026-05-04 08:25 47.95623 -57.54933 36290 ft 522 kts 69°
2026-05-04 08:27 48.05870 -57.21809 36317 ft 521 kts 70°
2026-05-04 08:28 48.08899 -57.11930 36317 ft 524 kts 70°
2026-05-04 08:28 48.11932 -57.02002 36316 ft 524 kts 71°
2026-05-04 08:29 48.14955 -56.92071 36310 ft 523 kts 71°
2026-05-04 08:31 48.26909 -56.52389 36311 ft 522 kts 71°
2026-05-04 08:33 48.38722 -56.12527 36336 ft 523 kts 72°
2026-05-04 08:35 48.50400 -55.72484 36351 ft 520 kts 72°
2026-05-04 08:35 48.52800 -55.64168 36361 ft 520 kts 72°
2026-05-04 08:37 48.62852 -55.29022 36386 ft 521 kts 73°
2026-05-04 08:38 48.65706 -55.18952 36397 ft 521 kts 73°
2026-05-04 08:38 48.68538 -55.08920 36398 ft 521 kts 73°
2026-05-04 08:40 48.79808 -54.68558 36415 ft 519 kts 73°
2026-05-04 08:41 48.82599 -54.58455 36381 ft 519 kts 74°
2026-05-04 08:41 48.85389 -54.48308 36413 ft 520 kts 74°
2026-05-04 08:42 48.88150 -54.38226 36420 ft 520 kts 74°
2026-05-04 08:42 48.90926 -54.28046 36462 ft 520 kts 74°
2026-05-04 08:43 48.93689 -54.17873 36446 ft 520 kts 74°
2026-05-04 08:43 48.96427 -54.07749 36473 ft 520 kts 74°
2026-05-04 08:44 48.99171 -53.97563 36480 ft 520 kts 75°
2026-05-04 08:46 49.10042 -53.56727 36509 ft 521 kts 75°
2026-05-04 08:46 49.12746 -53.46456 36522 ft 521 kts 75°
2026-05-04 08:47 49.15447 -53.36158 36522 ft 521 kts 75°
2026-05-04 08:47 49.18131 -53.25873 36537 ft 522 kts 76°
2026-05-04 08:48 49.20814 -53.15547 36547 ft 521 kts 76°
2026-05-04 08:48 49.23464 -53.05304 36550 ft 521 kts 76°
2026-05-04 08:49 49.26123 -52.94974 36561 ft 521 kts 76°
2026-05-04 08:50 49.35385 -52.58621 36581 ft 524 kts 76°
2026-05-04 08:51 49.37998 -52.48266 36581 ft 524 kts 76°
2026-05-04 08:51 49.40626 -52.37798 36596 ft 527 kts 76°
2026-05-04 08:52 49.43254 -52.27273 36605 ft 528 kts 76°
2026-05-04 08:52 49.45880 -52.16722 36606 ft 528 kts 76°
2026-05-04 08:54 49.56623 -51.74468 36807 ft 537 kts 75°
2026-05-04 08:55 49.58015 -51.69133 37221 ft 534 kts 75°
2026-05-04 08:55 49.59391 -51.63825 37533 ft 533 kts 75°
2026-05-04 08:55 49.60758 -51.58518 37765 ft 533 kts 75°
2026-05-04 08:55 49.62128 -51.53165 37887 ft 536 kts 75°
2026-05-04 08:57 49.71644 -51.15674 38685 ft 536 kts 75°
2026-05-04 09:01 49.90367 -50.40028 38736 ft 540 kts 75°
2026-05-04 09:01 49.93016 -50.29113 38743 ft 540 kts 75°
2026-05-04 09:02 49.95650 -50.18200 38741 ft 539 kts 74°
2026-05-04 09:02 49.98254 -50.07365 38760 ft 539 kts 74°
2026-05-04 09:03 50.00876 -49.96440 38771 ft 539 kts 74°
2026-05-04 09:03 50.03608 -49.85552 38771 ft 540 kts 73°
2026-05-04 09:04 50.06365 -49.74684 38775 ft 541 kts 73°
2026-05-04 09:04 50.09105 -49.63764 38793 ft 543 kts 73°
2026-05-04 09:05 50.11840 -49.52762 38790 ft 543 kts 73°
2026-05-04 09:05 50.14554 -49.41774 38799 ft 543 kts 73°
2026-05-04 09:06 50.17238 -49.30846 38797 ft 544 kts 73°
2026-05-04 09:08 50.28001 -48.86505 38828 ft 546 kts 73°
2026-05-04 09:08 50.30657 -48.75418 38830 ft 549 kts 73°
2026-05-04 09:09 50.33331 -48.64208 38837 ft 550 kts 73°
2026-05-04 09:09 50.36000 -48.52958 38843 ft 550 kts 73°
2026-05-04 09:10 50.38656 -48.41704 38843 ft 550 kts 72°
2026-05-04 09:10 50.41301 -48.30436 38859 ft 551 kts 72°
2026-05-04 09:11 50.43934 -48.19163 38870 ft 551 kts 72°
2026-05-04 09:11 50.46561 -48.07856 38868 ft 551 kts 73°
2026-05-04 09:12 50.49160 -47.96605 38880 ft 551 kts 72°
2026-05-04 09:14 50.59509 -47.51219 38904 ft 553 kts 72°
2026-05-04 09:14 50.62079 -47.39799 38912 ft 553 kts 72°
2026-05-04 09:15 50.64634 -47.28382 38906 ft 553 kts 72°
2026-05-04 09:15 50.67183 -47.16926 38908 ft 553 kts 72°
2026-05-04 09:17 50.78458 -46.65482 38934 ft 552 kts 72°
2026-05-04 09:18 50.80934 -46.54009 38954 ft 549 kts 71°
2026-05-04 09:18 50.83390 -46.42571 38955 ft 548 kts 71°
2026-05-04 09:19 50.85833 -46.31124 38966 ft 548 kts 71°
2026-05-04 09:19 50.88247 -46.19753 38971 ft 548 kts 71°
2026-05-04 09:20 50.90663 -46.08299 38982 ft 547 kts 71°
2026-05-04 09:20 50.93067 -45.96846 38990 ft 546 kts 71°
2026-05-04 09:21 50.95052 -45.87338 38988 ft 546 kts 71°
2026-05-04 09:21 50.97817 -45.74023 39002 ft 546 kts 71°
2026-05-04 09:22 50.99801 -45.64403 39002 ft 545 kts 71°
2026-05-04 09:22 51.02131 -45.53054 39006 ft 543 kts 70°
2026-05-04 09:23 51.04462 -45.41638 39021 ft 542 kts 70°
2026-05-04 09:23 51.06775 -45.30241 39029 ft 542 kts 71°
2026-05-04 09:25 51.15850 -44.84870 39061 ft 536 kts 71°
2026-05-04 09:26 51.18084 -44.73539 39072 ft 535 kts 71°
2026-05-04 09:26 51.20292 -44.62269 39070 ft 530 kts 71°
2026-05-04 09:27 51.22474 -44.51065 39069 ft 529 kts 71°
2026-05-04 09:27 51.24637 -44.39902 39076 ft 529 kts 71°
2026-05-04 09:28 51.26800 -44.28668 39083 ft 529 kts 71°
2026-05-04 09:28 51.28953 -44.17426 39093 ft 528 kts 71°
2026-05-04 09:29 51.31094 -44.06170 39099 ft 528 kts 71°
2026-05-04 09:29 51.33221 -43.94927 39107 ft 528 kts 71°
2026-05-04 09:30 51.35325 -43.83738 39118 ft 529 kts 71°
2026-05-04 09:30 51.37432 -43.72465 39127 ft 528 kts 71°
2026-05-04 09:31 51.39526 -43.61189 39119 ft 527 kts 72°
2026-05-04 09:31 51.41606 -43.49925 39133 ft 527 kts 72°
2026-05-04 09:32 51.43674 -43.38654 39146 ft 527 kts 72°
2026-05-04 09:34 51.51836 -42.93490 39157 ft 528 kts 72°
2026-05-04 09:34 51.53853 -42.82150 39168 ft 528 kts 72°
2026-05-04 09:35 51.55860 -42.70796 39175 ft 528 kts 72°
2026-05-04 09:35 51.57845 -42.59501 39179 ft 528 kts 72°
2026-05-04 09:37 51.65740 -42.13832 39191 ft 533 kts 72°
2026-05-04 09:38 51.67702 -42.02297 39206 ft 534 kts 72°
2026-05-04 09:38 51.69642 -41.90812 39210 ft 534 kts 72°
2026-05-04 09:39 51.71581 -41.79249 39226 ft 534 kts 72°
2026-05-04 09:39 51.73508 -41.67688 39214 ft 533 kts 72°
2026-05-04 09:40 51.75423 -41.56122 39225 ft 533 kts 72°
2026-05-04 09:40 51.77328 -41.44543 39234 ft 533 kts 72°
2026-05-04 09:42 51.84800 -40.98317 39252 ft 531 kts 72°
2026-05-04 09:43 51.86640 -40.86737 39261 ft 531 kts 72°
2026-05-04 09:43 51.88468 -40.75144 39263 ft 528 kts 72°
2026-05-04 09:44 51.90261 -40.63690 39270 ft 527 kts 72°
2026-05-04 09:46 51.97354 -40.17615 39293 ft 525 kts 73°
2026-05-04 09:46 51.99081 -40.06194 39295 ft 524 kts 73°
2026-05-04 09:47 52.01304 -39.95000 39291 ft 520 kts 65°
2026-05-04 09:49 52.12134 -39.51569 39319 ft 518 kts 64°
2026-05-04 09:51 52.21488 -39.13442 39335 ft 517 kts 65°
2026-05-04 09:51 52.24139 -39.02518 39328 ft 517 kts 65°
2026-05-04 09:52 52.26761 -38.91658 39336 ft 517 kts 65°
2026-05-04 09:52 52.29389 -38.80717 39343 ft 516 kts 65°
2026-05-04 09:53 52.32002 -38.69785 39345 ft 516 kts 66°
2026-05-04 09:53 52.34611 -38.58813 39344 ft 516 kts 66°
2026-05-04 09:54 52.37187 -38.47926 39363 ft 516 kts 66°
2026-05-04 09:54 52.39771 -38.36950 39349 ft 515 kts 66°
2026-05-04 09:55 52.42340 -38.25981 39356 ft 515 kts 66°
2026-05-04 09:55 52.44894 -38.15019 39358 ft 515 kts 66°
2026-05-04 09:56 52.47439 -38.04042 39359 ft 515 kts 66°
2026-05-04 09:56 52.49959 -37.93114 39366 ft 515 kts 66°
2026-05-04 09:57 52.52487 -37.82098 39369 ft 515 kts 67°
2026-05-04 09:57 52.55003 -37.71074 39368 ft 515 kts 67°
2026-05-04 09:58 52.57509 -37.60038 39366 ft 515 kts 67°
2026-05-04 09:58 52.60002 -37.48999 39375 ft 514 kts 67°
2026-05-04 10:00 52.69849 -37.04829 39390 ft 513 kts 68°
2026-05-04 10:04 52.86650 -36.27203 39404 ft 512 kts 69°
2026-05-04 10:04 52.89006 -36.16080 39398 ft 512 kts 69°
2026-05-04 10:05 52.91335 -36.05021 39400 ft 512 kts 69°
2026-05-04 10:05 52.93674 -35.93857 39400 ft 512 kts 69°
2026-05-04 10:06 52.96002 -35.82677 39400 ft 512 kts 69°
2026-05-04 10:06 52.98237 -35.71888 39401 ft 512 kts 69°
2026-05-04 10:08 53.06259 -35.32674 39402 ft 511 kts 70°
2026-05-04 10:08 53.08524 -35.21458 39415 ft 512 kts 70°
2026-05-04 10:09 53.10777 -35.10238 39406 ft 511 kts 70°
2026-05-04 10:09 53.12515 -35.01539 39406 ft 511 kts 70°
2026-05-04 10:10 53.14458 -34.91770 39411 ft 511 kts 70°
2026-05-04 10:10 53.16681 -34.80530 39411 ft 511 kts 70°
2026-05-04 10:11 53.18897 -34.69260 39409 ft 511 kts 70°
2026-05-04 10:11 53.21103 -34.57972 39406 ft 511 kts 70°
2026-05-04 10:12 53.23294 -34.46697 39411 ft 511 kts 70°
2026-05-04 10:12 53.25467 -34.35451 39411 ft 511 kts 71°
2026-05-04 10:13 53.27636 -34.24157 39413 ft 511 kts 71°
2026-05-04 10:13 53.29778 -34.12941 39411 ft 512 kts 71°
2026-05-04 10:14 53.31934 -34.01579 39414 ft 512 kts 71°
2026-05-04 10:16 53.40437 -33.56096 39411 ft 513 kts 71°
2026-05-04 10:16 53.42286 -33.46056 39410 ft 513 kts 71°
2026-05-04 10:17 53.43816 -33.37707 39413 ft 513 kts 71°
2026-05-04 10:19 53.50133 -33.02832 39408 ft 513 kts 72°
2026-05-04 10:19 53.52120 -32.91719 39409 ft 513 kts 72°
2026-05-04 10:20 53.54162 -32.80232 39409 ft 513 kts 72°
2026-05-04 10:20 53.56195 -32.68719 39410 ft 512 kts 72°
2026-05-04 10:21 53.58211 -32.57233 39408 ft 512 kts 72°
2026-05-04 10:21 53.60207 -32.45782 39409 ft 512 kts 72°
2026-05-04 10:22 53.63063 -32.29273 39412 ft 512 kts 73°
2026-05-04 10:23 53.65043 -32.17735 39408 ft 511 kts 73°
2026-05-04 10:25 53.72834 -31.71590 39405 ft 511 kts 73°
2026-05-04 10:25 53.74755 -31.60018 39403 ft 511 kts 73°
2026-05-04 10:26 53.76669 -31.48411 39401 ft 511 kts 73°
2026-05-04 10:26 53.78559 -31.36878 39401 ft 511 kts 73°
2026-05-04 10:27 53.80447 -31.25270 39408 ft 511 kts 73°
2026-05-04 10:27 53.82322 -31.13667 39400 ft 511 kts 73°
2026-05-04 10:28 53.84185 -31.02063 39400 ft 511 kts 74°
2026-05-04 10:28 53.86037 -30.90437 39397 ft 511 kts 74°
2026-05-04 10:29 53.87878 -30.78808 39399 ft 510 kts 74°
2026-05-04 10:29 53.89703 -30.67196 39398 ft 509 kts 74°
2026-05-04 10:30 53.91516 -30.55577 39400 ft 509 kts 74°
2026-05-04 10:30 53.93311 -30.43996 39400 ft 509 kts 74°
2026-05-04 10:31 53.95102 -30.32356 39398 ft 509 kts 74°
2026-05-04 10:32 54.01229 -29.91766 39398 ft 508 kts 75°
2026-05-04 10:33 54.02916 -29.79917 39398 ft 508 kts 75°
2026-05-04 10:33 54.04557 -29.68278 39394 ft 508 kts 75°
2026-05-04 10:34 54.06205 -29.56567 39389 ft 508 kts 75°
2026-05-04 10:34 54.07842 -29.44873 39390 ft 508 kts 75°
2026-05-04 10:35 54.09469 -29.33168 39390 ft 508 kts 76°
2026-05-04 10:35 54.11086 -29.21439 39396 ft 508 kts 76°
2026-05-04 10:36 54.12688 -29.09732 39387 ft 507 kts 76°
2026-05-04 10:36 54.14268 -28.98091 39389 ft 506 kts 76°
2026-05-04 10:37 54.15842 -28.86397 39387 ft 506 kts 76°
2026-05-04 10:37 54.17409 -28.74666 39387 ft 506 kts 76°
2026-05-04 10:39 54.22784 -28.33695 39384 ft 505 kts 76°
2026-05-04 10:40 54.24294 -28.21966 39387 ft 505 kts 76°
2026-05-04 10:40 54.25792 -28.10239 39387 ft 505 kts 76°
2026-05-04 10:41 54.27280 -27.98488 39384 ft 505 kts 77°
2026-05-04 10:41 54.28756 -27.86737 39384 ft 505 kts 77°
2026-05-04 10:42 54.30220 -27.74979 39385 ft 505 kts 77°
2026-05-04 10:42 54.31672 -27.63216 39388 ft 505 kts 77°
2026-05-04 10:43 54.33116 -27.51420 39387 ft 506 kts 77°
2026-05-04 10:45 54.38771 -27.04200 39382 ft 506 kts 77°
2026-05-04 10:45 54.40156 -26.92368 39378 ft 505 kts 78°
2026-05-04 10:46 54.41529 -26.80537 39380 ft 505 kts 78°
2026-05-04 10:46 54.42892 -26.68690 39373 ft 505 kts 78°
2026-05-04 10:47 54.44241 -26.56848 39382 ft 505 kts 78°
2026-05-04 10:47 54.45574 -26.45044 39373 ft 505 kts 78°
2026-05-04 10:49 54.50802 -25.97630 39369 ft 504 kts 78°
2026-05-04 10:50 54.52082 -25.85740 39361 ft 504 kts 78°
2026-05-04 10:52 54.57068 -25.38270 39360 ft 504 kts 79°
2026-05-04 10:52 54.58290 -25.26343 39353 ft 504 kts 79°
2026-05-04 10:54 54.63048 -24.78684 39344 ft 504 kts 79°
2026-05-04 10:56 54.67446 -24.32756 39334 ft 508 kts 80°
2026-05-04 10:57 54.68560 -24.20803 39336 ft 505 kts 80°
2026-05-04 10:57 54.69664 -24.08824 39334 ft 505 kts 80°
2026-05-04 10:58 54.70758 -23.96824 39330 ft 505 kts 80°
2026-05-04 10:58 54.71840 -23.84822 39335 ft 504 kts 80°
2026-05-04 10:59 54.72909 -23.72829 39328 ft 504 kts 81°
2026-05-04 10:59 54.73965 -23.60833 39327 ft 504 kts 81°
2026-05-04 11:00 54.75012 -23.48800 39325 ft 504 kts 81°
2026-05-04 11:02 54.79068 -23.00781 39322 ft 504 kts 81°
2026-05-04 11:05 54.86161 -22.10468 39311 ft 504 kts 82°
2026-05-04 11:06 54.87047 -21.98518 39293 ft 504 kts 82°
2026-05-04 11:06 54.87935 -21.86388 39296 ft 504 kts 82°
2026-05-04 11:10 54.93779 -21.01782 39275 ft 504 kts 83°
2026-05-04 11:12 54.96852 -20.53376 39268 ft 504 kts 83°
2026-05-04 11:12 54.97592 -20.41227 39259 ft 504 kts 83°
2026-05-04 11:13 54.98320 -20.29076 39257 ft 504 kts 83°
2026-05-04 11:13 54.99035 -20.16938 39255 ft 504 kts 83°
2026-05-04 11:14 54.99737 -20.04799 39256 ft 504 kts 83°
2026-05-04 11:16 55.00829 -19.56027 39240 ft 504 kts 88°
2026-05-04 11:16 55.01026 -19.43832 39236 ft 504 kts 88°
2026-05-04 11:17 55.01218 -19.31628 39236 ft 504 kts 88°
2026-05-04 11:19 55.01849 -18.82900 39228 ft 503 kts 88°
2026-05-04 11:19 55.01976 -18.70668 39226 ft 503 kts 88°
2026-05-04 11:20 55.02091 -18.58462 39218 ft 503 kts 89°
2026-05-04 11:20 55.02193 -18.46305 39218 ft 503 kts 89°
2026-05-04 11:22 55.02480 -17.97553 39208 ft 503 kts 89°
2026-05-04 11:23 55.02522 -17.85352 39209 ft 503 kts 89°
2026-05-04 11:25 55.02571 -17.42737 39201 ft 502 kts 89°
2026-05-04 11:25 55.02557 -17.30647 39200 ft 501 kts 89°
2026-05-04 11:27 55.02348 -16.75877 39187 ft 501 kts 90°
2026-05-04 11:28 55.02268 -16.63726 39190 ft 501 kts 90°
2026-05-04 11:28 55.02177 -16.51643 39185 ft 501 kts 90°
2026-05-04 11:29 55.02072 -16.39497 39187 ft 501 kts 90°
2026-05-04 11:29 55.01956 -16.27356 39180 ft 501 kts 90°
2026-05-04 11:33 55.00808 -15.42519 39170 ft 500 kts 91°
2026-05-04 11:33 55.00596 -15.30419 39167 ft 499 kts 91°
2026-05-04 11:34 55.00372 -15.18335 39171 ft 499 kts 91°
2026-05-04 11:34 55.00137 -15.06284 39171 ft 499 kts 92°
2026-05-04 11:35 54.99925 -14.94199 39158 ft 499 kts 90°
2026-05-04 11:35 54.99971 -14.82108 39164 ft 499 kts 89°
2026-05-04 11:36 55.00066 -14.70019 39160 ft 498 kts 89°
2026-05-04 11:36 55.00111 -14.57928 39157 ft 498 kts 89°
2026-05-04 11:37 55.00117 -14.45824 39156 ft 498 kts 90°
2026-05-04 11:37 55.00104 -14.33828 39158 ft 498 kts 90°
2026-05-04 11:38 55.00080 -14.21752 39160 ft 498 kts 90°
2026-05-04 11:38 55.00046 -14.09684 39157 ft 498 kts 90°
2026-05-04 11:39 55.00003 -13.97627 39144 ft 498 kts 90°
2026-05-04 11:41 55.00635 -13.57471 39149 ft 497 kts 88°
2026-05-04 11:41 55.00786 -13.45508 39152 ft 497 kts 88°
2026-05-04 11:42 55.00922 -13.33455 39144 ft 497 kts 88°
2026-05-04 11:42 55.01046 -13.21424 39146 ft 497 kts 88°
2026-05-04 11:43 55.01159 -13.09372 39146 ft 496 kts 88°
2026-05-04 11:43 55.01262 -12.97354 39133 ft 496 kts 88°
2026-05-04 11:44 55.01351 -12.85412 39135 ft 495 kts 88°
2026-05-04 11:44 55.01429 -12.73397 39148 ft 495 kts 89°
2026-05-04 11:45 55.01495 -12.61359 39139 ft 496 kts 89°
2026-05-04 11:45 55.01550 -12.49353 39138 ft 495 kts 89°
2026-05-04 11:46 55.01592 -12.37364 39133 ft 495 kts 89°
2026-05-04 11:46 55.01623 -12.25360 39131 ft 495 kts 89°
2026-05-04 11:47 55.01642 -12.13440 39131 ft 495 kts 89°
2026-05-04 11:47 55.01649 -12.01431 39132 ft 494 kts 89°
2026-05-04 11:48 55.01645 -11.89456 39129 ft 493 kts 89°
2026-05-04 11:48 55.01629 -11.77473 39129 ft 494 kts 89°
2026-05-04 11:49 55.01601 -11.65568 39132 ft 494 kts 89°
2026-05-04 11:49 55.01561 -11.53611 39130 ft 494 kts 89°
2026-05-04 11:50 55.01510 -11.41624 39129 ft 494 kts 89°
2026-05-04 11:50 55.01447 -11.29663 39129 ft 494 kts 90°
2026-05-04 11:51 55.01372 -11.17696 39129 ft 494 kts 90°
2026-05-04 11:51 55.01285 -11.05726 39128 ft 492 kts 89°
2026-05-04 11:52 55.01186 -10.93787 39124 ft 491 kts 90°
2026-05-04 11:52 55.01077 -10.81906 39123 ft 490 kts 90°
2026-05-04 11:53 55.00957 -10.70091 39121 ft 490 kts 90°
2026-05-04 11:53 55.00825 -10.58211 39124 ft 490 kts 90°
2026-05-04 11:55 55.00181 -10.10769 39121 ft 490 kts 90°
2026-05-04 11:56 54.99791 -9.98918 39122 ft 491 kts 98°
2026-05-04 11:56 54.98644 -9.87168 39121 ft 491 kts 99°
2026-05-04 11:57 54.97355 -9.75493 39121 ft 491 kts 100°
2026-05-04 11:57 54.96035 -9.63811 39122 ft 496 kts 100°
2026-05-04 11:58 54.94702 -9.52011 39122 ft 497 kts 100°
2026-05-04 11:58 54.93364 -9.40205 39122 ft 497 kts 100°
2026-05-04 11:59 54.92015 -9.28383 39124 ft 497 kts 100°
2026-05-04 11:59 54.90666 -9.16681 39120 ft 495 kts 100°
2026-05-04 12:00 54.89304 -9.04973 39121 ft 494 kts 100°
2026-05-04 12:00 54.87932 -8.93266 39116 ft 494 kts 100°
2026-05-04 12:01 54.86548 -8.81575 39117 ft 494 kts 100°
2026-05-04 12:02 54.81630 -8.40846 39103 ft 493 kts 101°
2026-05-04 12:03 54.80198 -8.29207 39101 ft 493 kts 101°
2026-05-04 12:03 54.78755 -8.17586 39099 ft 493 kts 101°
2026-05-04 12:04 54.77304 -8.05989 39096 ft 493 kts 101°
2026-05-04 12:04 54.75838 -7.94369 39099 ft 493 kts 101°
2026-05-04 12:05 54.74359 -7.82752 39098 ft 492 kts 101°
2026-05-04 12:05 54.72877 -7.71298 39095 ft 490 kts 102°
2026-05-04 12:06 54.70934 -7.59969 39096 ft 491 kts 107°
2026-05-04 12:06 54.68788 -7.48766 39097 ft 491 kts 107°
2026-05-04 12:07 54.66678 -7.37509 39092 ft 491 kts 107°
2026-05-04 12:07 54.64618 -7.26255 39097 ft 491 kts 106°
2026-05-04 12:08 54.62575 -7.15056 39096 ft 491 kts 106°
2026-05-04 12:08 54.60511 -7.03809 39092 ft 491 kts 107°
2026-05-04 12:09 54.58435 -6.92578 39092 ft 492 kts 107°
2026-05-04 12:09 54.56344 -6.81344 39094 ft 492 kts 107°
2026-05-04 12:10 54.54243 -6.70127 39094 ft 491 kts 107°
2026-05-04 12:10 54.52133 -6.58931 39104 ft 491 kts 107°
2026-05-04 12:11 54.50030 -6.47831 39101 ft 491 kts 107°
2026-05-04 12:11 54.47901 -6.36665 39102 ft 492 kts 107°
2026-05-04 12:12 54.45758 -6.25486 39100 ft 492 kts 107°
2026-05-04 12:12 54.43606 -6.14324 39099 ft 492 kts 107°
2026-05-04 12:14 54.34887 -5.69768 39101 ft 492 kts 108°
2026-05-04 12:15 54.32686 -5.58679 39099 ft 492 kts 108°
2026-05-04 12:15 54.30487 -5.47660 39100 ft 492 kts 108°
2026-05-04 12:16 54.28263 -5.36584 39099 ft 492 kts 108°
2026-05-04 12:16 54.26027 -5.25509 39100 ft 492 kts 107°
2026-05-04 12:17 54.23779 -5.14435 39097 ft 493 kts 108°
2026-05-04 12:17 54.21523 -5.03386 39094 ft 493 kts 108°
2026-05-04 12:18 54.19253 -4.92324 39094 ft 493 kts 108°
2026-05-04 12:18 54.16976 -4.81297 39081 ft 493 kts 108°
2026-05-04 12:19 54.14687 -4.70268 39080 ft 493 kts 108°
2026-05-04 12:19 54.12386 -4.59244 39075 ft 494 kts 109°
2026-05-04 12:20 54.10075 -4.48232 39075 ft 494 kts 108°
2026-05-04 12:20 54.07764 -4.37282 39075 ft 494 kts 109°
2026-05-04 12:21 54.05430 -4.26282 39076 ft 494 kts 109°
2026-05-04 12:21 54.03084 -4.15282 39077 ft 494 kts 109°
2026-05-04 12:22 54.00725 -4.04281 39075 ft 494 kts 109°
2026-05-04 12:22 53.98356 -3.93297 39080 ft 495 kts 109°
2026-05-04 12:23 53.95993 -3.82397 39080 ft 494 kts 109°
2026-05-04 12:23 53.93627 -3.71422 39086 ft 494 kts 109°
2026-05-04 12:24 53.91670 -3.62301 39078 ft 494 kts 109°
2026-05-04 12:24 53.89306 -3.51348 39077 ft 494 kts 110°
2026-05-04 12:25 53.86931 -3.40405 39075 ft 494 kts 110°
2026-05-04 12:25 53.84539 -3.29479 39075 ft 494 kts 110°
2026-05-04 12:26 53.82133 -3.18551 39075 ft 494 kts 110°
2026-05-04 12:26 53.79726 -3.07666 39076 ft 494 kts 110°
2026-05-04 12:27 53.77322 -2.96846 39075 ft 494 kts 110°
2026-05-04 12:27 53.74893 -2.85973 39064 ft 495 kts 110°
2026-05-04 12:28 53.72454 -2.75111 39064 ft 494 kts 110°
2026-05-04 12:28 53.70005 -2.64262 39064 ft 494 kts 111°
2026-05-04 12:29 53.67550 -2.53439 39064 ft 494 kts 111°
2026-05-04 12:29 53.65085 -2.42630 39064 ft 494 kts 111°
2026-05-04 12:30 53.62607 -2.31821 39067 ft 494 kts 111°
2026-05-04 12:30 53.60123 -2.21039 39067 ft 494 kts 111°
2026-05-04 12:31 53.57650 -2.10334 39067 ft 494 kts 111°
2026-05-04 12:31 53.55140 -1.99560 39067 ft 494 kts 111°
2026-05-04 12:32 53.51675 -1.83240 39070 ft 494 kts 107°
2026-05-04 12:33 53.49701 -1.72170 39069 ft 494 kts 107°
2026-05-04 12:33 53.47766 -1.61162 39070 ft 494 kts 107°
2026-05-04 12:34 53.45804 -1.50098 39071 ft 494 kts 107°
2026-05-04 12:34 53.43814 -1.39028 39070 ft 495 kts 107°
2026-05-04 12:35 53.41813 -1.27987 39070 ft 495 kts 107°
2026-05-04 12:35 53.39823 -1.16994 39067 ft 495 kts 107°
2026-05-04 12:36 53.37806 -1.05965 39067 ft 495 kts 107°
2026-05-04 12:36 53.35773 -0.94945 39067 ft 496 kts 108°
2026-05-04 12:37 53.33729 -0.83912 39068 ft 496 kts 108°
2026-05-04 12:37 53.31676 -0.72889 39069 ft 496 kts 108°
2026-05-04 12:38 53.29615 -0.61865 39071 ft 496 kts 108°
2026-05-04 12:38 53.27544 -0.50869 39074 ft 496 kts 108°
2026-05-04 12:39 53.25464 -0.39882 39076 ft 496 kts 108°
2026-05-04 12:39 53.23385 -0.28970 39071 ft 496 kts 108°
2026-05-04 12:40 53.21281 -0.17986 39075 ft 496 kts 109°
2026-05-04 12:40 53.19163 -0.07021 39073 ft 496 kts 109°
2026-05-04 12:41 53.17041 0.03920 39061 ft 496 kts 109°
2026-05-04 12:41 53.14904 0.14868 39062 ft 497 kts 109°
2026-05-04 12:42 53.12769 0.25750 39061 ft 497 kts 109°
2026-05-04 12:42 53.10608 0.36705 39059 ft 497 kts 109°
2026-05-04 12:43 53.08440 0.47636 39056 ft 497 kts 109°
2026-05-04 12:43 53.06262 0.58558 39059 ft 498 kts 109°
2026-05-04 12:44 53.04066 0.69503 39056 ft 499 kts 110°
2026-05-04 12:44 53.01875 0.80364 39058 ft 499 kts 109°
2026-05-04 12:45 52.99662 0.91278 39058 ft 499 kts 110°
2026-05-04 12:45 52.97675 1.02309 39048 ft 499 kts 103°
2026-05-04 12:46 52.96278 1.13610 39055 ft 500 kts 102°
2026-05-04 12:46 52.94972 1.24957 39045 ft 501 kts 102°
2026-05-04 12:47 52.93677 1.36199 38446 ft 497 kts 102°
2026-05-04 12:47 52.93020 1.41834 37542 ft 498 kts 102°
2026-05-04 12:47 52.92354 1.47482 36681 ft 499 kts 102°
2026-05-04 12:47 52.91687 1.53109 35846 ft 500 kts 102°
2026-05-04 12:48 52.91009 1.58791 34867 ft 503 kts 103°
2026-05-04 12:48 52.90326 1.64485 33966 ft 505 kts 103°
2026-05-04 12:48 52.89639 1.70193 32929 ft 506 kts 103°
2026-05-04 12:48 52.88946 1.75931 31772 ft 510 kts 103°
2026-05-04 12:49 52.88242 1.81726 30582 ft 516 kts 103°
2026-05-04 12:49 52.87530 1.87569 29431 ft 519 kts 103°
2026-05-04 12:49 52.86817 1.93394 28722 ft 512 kts 103°
2026-05-04 12:49 52.86113 1.99133 28052 ft 506 kts 103°
2026-05-04 12:50 52.85421 2.04746 27322 ft 501 kts 104°
2026-05-04 12:50 52.84723 2.10383 26544 ft 499 kts 104°
2026-05-04 12:50 52.84025 2.15987 25904 ft 494 kts 104°
2026-05-04 12:50 52.83334 2.21522 25278 ft 489 kts 104°
2026-05-04 12:51 52.82644 2.27013 24641 ft 484 kts 104°
2026-05-04 12:51 52.81960 2.32444 24005 ft 480 kts 103°
2026-05-04 12:51 52.81279 2.37827 23334 ft 476 kts 103°
2026-05-04 12:51 52.80602 2.43156 22614 ft 472 kts 103°
2026-05-04 12:52 52.79930 2.48430 21928 ft 467 kts 103°
2026-05-04 12:52 52.79264 2.53656 21203 ft 462 kts 103°
2026-05-04 12:52 52.78601 2.58836 20491 ft 459 kts 103°
2026-05-04 12:52 52.77939 2.63965 19851 ft 454 kts 103°
2026-05-04 12:53 52.77280 2.69043 19224 ft 448 kts 103°
2026-05-04 12:53 52.76636 2.73987 18607 ft 444 kts 103°
2026-05-04 12:53 52.75989 2.78941 17924 ft 439 kts 103°
2026-05-04 12:53 52.75350 2.83852 17214 ft 435 kts 103°
2026-05-04 12:54 52.74711 2.88716 16516 ft 431 kts 103°
2026-05-04 12:54 52.74077 2.93520 15854 ft 426 kts 103°
2026-05-04 12:54 52.73366 2.98253 15245 ft 421 kts 108°
2026-05-04 12:54 52.72192 3.02656 14546 ft 417 kts 120°
2026-05-04 12:55 52.70774 3.06774 13933 ft 411 kts 122°
2026-05-04 12:55 52.69332 3.10839 13194 ft 408 kts 122°
2026-05-04 12:55 52.67909 3.14854 12495 ft 403 kts 122°
2026-05-04 12:55 52.66504 3.18830 11806 ft 399 kts 122°
2026-05-04 12:56 52.65116 3.22759 11125 ft 394 kts 122°
2026-05-04 12:56 52.63746 3.26639 10494 ft 390 kts 122°
2026-05-04 12:56 52.62388 3.30479 10116 ft 387 kts 122°
2026-05-04 12:56 52.61033 3.34307 10021 ft 387 kts 122°
2026-05-04 12:57 52.59727 3.38173 10009 ft 388 kts 115°
2026-05-04 12:57 52.58845 3.42365 10012 ft 388 kts 107°
2026-05-04 12:57 52.58186 3.46674 10009 ft 389 kts 104°
2026-05-04 12:57 52.57627 3.50972 10004 ft 389 kts 102°
2026-05-04 12:58 52.57107 3.55328 10008 ft 389 kts 102°
2026-05-04 12:58 52.56609 3.59703 10007 ft 389 kts 101°
2026-05-04 12:58 52.56124 3.64076 10006 ft 389 kts 101°
2026-05-04 12:58 52.55645 3.68450 10006 ft 389 kts 101°
2026-05-04 12:59 52.55113 3.72818 10006 ft 389 kts 104°
2026-05-04 12:59 52.54451 3.77139 10007 ft 389 kts 105°
2026-05-04 12:59 52.53768 3.81431 10003 ft 388 kts 106°
2026-05-04 12:59 52.53088 3.85630 9999 ft 369 kts 106°
2026-05-04 13:00 52.52442 3.89581 9985 ft 347 kts 106°
2026-05-04 13:00 52.51833 3.93287 9786 ft 334 kts 106°
2026-05-04 13:00 52.51235 3.96895 9618 ft 321 kts 107°
2026-05-04 13:00 52.50660 4.00361 9526 ft 308 kts 107°
2026-05-04 13:01 52.50103 4.03689 9538 ft 298 kts 107°
2026-05-04 13:01 52.49572 4.06953 9335 ft 295 kts 107°
2026-05-04 13:01 52.49028 4.10189 9069 ft 293 kts 107°
2026-05-04 13:01 52.48480 4.13396 8796 ft 290 kts 107°
2026-05-04 13:02 52.47939 4.16579 8448 ft 289 kts 107°
2026-05-04 13:02 52.47403 4.19758 8011 ft 288 kts 107°
2026-05-04 13:02 52.46871 4.22919 7568 ft 285 kts 107°
2026-05-04 13:02 52.46344 4.26041 7139 ft 283 kts 106°
2026-05-04 13:03 52.45823 4.29130 6704 ft 281 kts 107°
2026-05-04 13:03 52.45299 4.32223 6225 ft 281 kts 106°
2026-05-04 13:03 52.44776 4.35301 5743 ft 279 kts 106°
2026-05-04 13:03 52.44258 4.38352 5286 ft 277 kts 106°
2026-05-04 13:04 52.43744 4.41365 4937 ft 271 kts 106°
2026-05-04 13:04 52.43237 4.44343 4507 ft 270 kts 106°
2026-05-04 13:04 52.42733 4.47307 4141 ft 270 kts 106°
2026-05-04 13:04 52.42236 4.50233 3826 ft 268 kts 106°
2026-05-04 13:05 52.41734 4.53160 3417 ft 266 kts 106°
2026-05-04 13:05 52.41231 4.56075 2952 ft 265 kts 106°
2026-05-04 13:05 52.40729 4.58974 2507 ft 263 kts 106°
2026-05-04 13:05 52.40231 4.61851 2103 ft 262 kts 106°
2026-05-04 13:06 52.39735 4.64713 2009 ft 262 kts 106°
2026-05-04 13:06 52.39243 4.67551 1996 ft 252 kts 106°
2026-05-04 13:06 52.38783 4.70210 2009 ft 233 kts 106°
2026-05-04 13:06 52.38358 4.72662 2008 ft 215 kts 106°
2026-05-04 13:07 52.37965 4.74925 2006 ft 198 kts 106°
2026-05-04 13:07 52.37603 4.77005 1998 ft 181 kts 106°
2026-05-04 13:07 52.37275 4.78890 2038 ft 165 kts 107°
2026-05-04 13:07 52.36966 4.80654 2030 ft 159 kts 107°
2026-05-04 13:08 52.36660 4.82405 2020 ft 160 kts 107°
2026-05-04 13:08 52.36353 4.84164 2023 ft 162 kts 107°
2026-05-04 13:08 52.36046 4.85913 2023 ft 162 kts 107°
2026-05-04 13:08 52.35737 4.87679 2024 ft 162 kts 107°
2026-05-04 13:09 52.35426 4.89449 2018 ft 161 kts 107°
2026-05-04 13:09 52.35118 4.91209 2018 ft 161 kts 107°
2026-05-04 13:09 52.34808 4.92975 2019 ft 162 kts 107°
2026-05-04 13:09 52.34497 4.94745 2020 ft 162 kts 106°
2026-05-04 13:10 52.34189 4.96484 2005 ft 154 kts 105°
2026-05-04 13:10 52.33902 4.98118 1999 ft 147 kts 105°
2026-05-04 13:10 52.33621 4.99721 2015 ft 146 kts 105°
2026-05-04 13:10 52.33339 5.01317 2016 ft 146 kts 106°
2026-05-04 13:11 52.33055 5.02923 2020 ft 148 kts 106°
2026-05-04 13:11 52.32864 5.04003 2018 ft 149 kts 105°
2026-05-04 13:11 52.32535 5.05618 2017 ft 150 kts 113°
2026-05-04 13:11 52.31946 5.07017 2016 ft 150 kts 136°
2026-05-04 13:12 52.31075 5.07936 2019 ft 151 kts 159°
2026-05-04 13:12 52.30046 5.08151 1999 ft 151 kts 194°
2026-05-04 13:12 52.29230 5.07179 2016 ft 147 kts 241°
2026-05-04 13:12 52.28894 5.05624 2013 ft 145 kts 261°
2026-05-04 13:13 52.29007 5.04006 2021 ft 143 kts 287°
2026-05-04 13:13 52.29379 5.02501 2014 ft 143 kts 292°
2026-05-04 13:13 52.29767 5.01018 2021 ft 145 kts 293°
2026-05-04 13:13 52.30167 4.99508 2017 ft 145 kts 293°
2026-05-04 13:14 52.30571 4.97988 2024 ft 147 kts 294°
2026-05-04 13:14 52.30979 4.96446 2018 ft 146 kts 293°
2026-05-04 13:14 52.31373 4.94961 2014 ft 141 kts 294°
2026-05-04 13:14 52.31771 4.93453 2026 ft 148 kts 292°
2026-05-04 13:15 52.32100 4.91841 2028 ft 151 kts 282°
2026-05-04 13:15 52.32252 4.90138 2019 ft 154 kts 265°
2026-05-04 13:15 52.32121 4.88311 1753 ft 171 kts 263°
2026-05-04 13:15 52.32037 4.86337 1286 ft 177 kts 269°
2026-05-04 13:16 52.31993 4.84312 688 ft 181 kts 269°
2026-05-04 13:16 52.31942 4.82307 337 ft 169 kts 267°
2026-05-04 13:16 52.31866 4.80456 93 ft 157 kts 268°
2026-05-04 13:16 52.31809 4.78772 3 ft 133 kts 267°
2026-05-04 13:17 52.31747 4.77764 4 ft 66 kts 249°
2026-05-04 13:17 52.31620 4.77404 3 ft 0 kts 238°
2026-05-04 13:17 52.31614 4.77389 3 ft 4 kts 237°
2026-05-04 13:17 52.31594 4.77333 3 ft 8 kts 244°
2026-05-04 13:18 52.31518 4.77208 3 ft 28 kts 195°
2026-05-04 13:18 52.31327 4.77210 3 ft 21 kts 145°
2026-05-04 13:18 52.31292 4.77371 3 ft 16 kts 97°
2026-05-04 13:18 52.31228 4.77496 4 ft 14 kts 175°
2026-05-04 13:19 52.31119 4.77488 3 ft 15 kts 197°
2026-05-04 13:19 52.31095 4.77431 3 ft 3 kts 279°
2026-05-04 13:19 52.31111 4.77407 4 ft 4 kts 326°
2026-05-04 13:19 52.31135 4.77391 4 ft 0 kts 353°